DLH6PJ EDDH-EDDF

Flight info

Callsign DLH6PJ
Flight time N/A
Altitude 30000
Route AMLUH2G/33 AMLUH M852 DENIX DCT RIMET/N0386F310 T157 KOKEB/N0335F230 T157 KERAX KERAX5A
Aircraft A20N/M-SDE2E3FGIJ1LORWXYZ/HB1

Departure

Time 2026-05-04 17:31
Airport Hamburg Helmut Schmidt Airport (EDDH)

Arrival

Time N/A
Airport Frankfurt Main Airport (EDDF)
Time Latitude Longitude Altitude Speed Heading
2026-05-04 17:07 53.63007 10.00359 49 ft 0 kts 122°
2026-05-04 17:23 53.63021 10.00323 53 ft 4 kts 122°
2026-05-04 17:24 53.63035 10.00285 48 ft 4 kts 122°
2026-05-04 17:24 53.63069 10.00222 47 ft 4 kts 212°
2026-05-04 17:25 53.63054 10.00206 48 ft 0 kts 212°
2026-05-04 17:27 53.63052 10.00204 48 ft 1 kts 212°
2026-05-04 17:27 53.63025 10.00175 54 ft 4 kts 212°
2026-05-04 17:28 53.62960 10.00105 54 ft 7 kts 212°
2026-05-04 17:29 53.62841 9.99951 52 ft 0 kts 246°
2026-05-04 17:29 53.62839 9.99942 53 ft 2 kts 246°
2026-05-04 17:30 53.62888 9.99726 53 ft 26 kts 333°
2026-05-04 17:31 53.64266 9.98500 262 ft 174 kts 329°
2026-05-04 17:31 53.67815 9.95395 2636 ft 207 kts 331°
2026-05-04 17:32 53.70645 9.94334 4387 ft 221 kts
2026-05-04 17:33 53.73801 9.99931 6398 ft 246 kts 72°
2026-05-04 17:33 53.74077 10.02788 7213 ft 249 kts 94°
2026-05-04 17:34 53.71729 10.11247 9097 ft 292 kts 123°
2026-05-04 17:34 53.70695 10.14232 10080 ft 297 kts 123°
2026-05-04 17:35 53.66005 10.21678 12266 ft 327 kts 164°
2026-05-04 17:35 53.61559 10.23794 14150 ft 338 kts 169°
2026-05-04 17:35 53.59266 10.24812 15005 ft 343 kts 169°
2026-05-04 17:36 53.56945 10.25854 15911 ft 348 kts 169°
2026-05-04 17:36 53.54593 10.26918 16799 ft 352 kts 169°